[[{"header":{"parameterUnit":"m.s-1","parameterCategory":1,"la1":30.2991,"la2":30.254,"lo1":-89.0895,"lo2":-89.0444,"dy":0.0017,"dx":0.0017,"nx":28,"ny":28,"refTime":"2025-06-18T03:00:00:Z","depth":0,"parameterNumber":2,"parameterNumberName":"U-component_of_WINDS"},"data":[0,0,0,0,0,0,0,0,0,0,0,0,0,0,0,0,0,0,0,0,0,0,0,0,0,0,0,0,0,0,0,0,0,0,0,0,0,0,0,0,0,0,0,0,0,0,0,0,0,0,0,0,0,0,0,0,0,0,0.0153,0.0153,0,0.007,0.0069,0.0068,-0.0012,-0.0013,-0.0014,-0.0015,-0.0102,-0.0103,-0.0105,0,0,0,0,0,0,0,0,0,0,0,0,0,0.0242,0.0241,0.0154,0.0152,0.0151,0.007,0.0069,0.0067,-0.0012,-0.0013,-0.0014,-0.0015,-0.0101,-0.0103,-0.0105,0,0,0,0,0,0,0,0,0,0,0,0,0,0.0186,0.0241,0.0154,0.0102,0.0097,0.007,0.0069,0.0067,-0.0011,-0.0013,-0.0014,-0.0016,-0.0101,-0.0103,-0.0105,-0.0088,0,0,-0.0111,-0.0112,0,0,0,0,0,0,0,0,0.0189,0.0183,0.0111,0.0106,0.0099,0.0038,0.0068,0.0015,-0.0011,0.003,-0.0015,-0.0017,-0.0054,-0.006,-0.0073,-0.0092,-0.0096,-0.0111,-0.0113,-0.0114,-0.0114,0,0,0,0,0,0,0,0.0193,0.0186,0.012,0.011,0.0103,0.0082,0.0073,0.0058,-0.0003,0.0026,0.002,0.0011,-0.0058,-0.007,-0.0075,-0.0097,-0.0111,-0.0113,-0.0115,-0.0115,-0.0108,-0.0107,0,0,0,0,0,0,0.0205,0.019,0.0123,0.0118,0.0142,0.0082,0.0071,0.0059,-0.0003,-0.0014,0.0013,0.0008,-0.0066,-0.0073,-0.0079,-0.0064,-0.0114,-0.0116,-0.0117,-0.011,-0.0108,-0.0107,0,0,0,0,0,0,0.0207,0.02,0.0126,0.0152,0.0141,0.0082,0.0069,0.0058,0.0045,-0.0013,-0.0024,0.0011,-0.0068,-0.0076,-0.0085,-0.0068,-0.0116,-0.0118,-0.0111,-0.0109,-0.0107,-0.0034,0,0,0,0,0,0,0.021,0.0201,0.0208,0.0153,0.014,0.0122,0.007,0.0058,0.0042,0.0035,-0.0018,-0.0028,-0.0069,-0.0082,-0.0087,-0.0072,-0.012,-0.0113,-0.011,-0.0108,-0.0038,-0.0029,-0.0022,0,0,0,0,0,0.0214,0.0232,0.0209,0.0201,0.0147,0.0123,0.0116,0.0068,0.0044,0.0049,0.0012,-0.0026,-0.0069,-0.0082,-0.0089,-0.0074,-0.0115,-0.0111,-0.0108,-0.0041,-0.0031,-0.0022,0,0,0,0,0,0,0.0291,0.0224,0.0197,0.0199,0.0167,0.011,0.0116,0.0081,0.0056,0.005,-0.0008,-0.002,-0.0023,-0.0049,-0.0063,-0.0062,-0.0097,-0.0095,-0.0044,-0.0035,-0.0027,-0.002,-0.0122,0,0,0,0,0,0.0308,0.0295,0.0237,0.0244,0.0229,0.0176,0.0163,0.0129,0.0094,0.008,0.0042,0.0009,-0.0012,-0.0025,-0.0047,-0.0042,-0.0056,-0.0035,-0.0027,-0.002,-0.0018,-0.0019,-0.0011,-0.0096,-0.0096,-0.0096,0,0,0.0344,0.0305,0.0301,0.0258,0.023,0.0217,0.0165,0.0153,0.0143,0.0078,0.0067,0.0038,-0.0003,-0.0006,-0.0009,-0.0028,0.0002,-0.0016,-0.001,-0.0012,-0.0015,-0.0007,0.0,-0.0094,-0.0094,-0.0095,0,0,0.0401,0.0372,0.0373,0.0345,0.0303,0.0267,0.0267,0.0215,0.0193,0.018,0.0132,0.0117,0.0083,0.0055,0.0037,0.0082,0.0045,0.0076,0.0118,0.0118,0.0124,0.013,0.0145,0.0151,0.0079,0.0079,0.0079,0,0.045,0.0429,0.0378,0.0369,0.0351,0.0292,0.0293,0.0268,0.0221,0.021,0.0189,0.0143,0.0111,0.0101,0.0112,0.0099,0.0096,0.0082,0.0128,0.0133,0.0137,0.0151,0.0157,0.0083,0.0082,0.0082,0.0082,0,0.0491,0.0476,0.0483,0.0438,0.0421,0.0417,0.0364,0.0353,0.032,0.0286,0.0273,0.0233,0.02,0.0195,0.0163,0.018,0.0169,0.0139,0.0102,0.015,0.0162,0.0167,0.0089,0.0087,0.0086,0.0085,0,0,0.0595,0.0521,0.0524,0.0503,0.0451,0.0439,0.0431,0.04,0.039,0.0359,0.0351,0.0322,0.0293,0.0272,0.0236,0.0236,0.0273,0.0206,0.0204,0.0219,0.0287,0.0309,0.0316,0.0249,0.0249,0.025,0.029,0,0.0642,0.0626,0.058,0.0577,0.0562,0.0506,0.0499,0.0466,0.0434,0.0416,0.0379,0.036,0.0324,0.0311,0.0308,0.0269,0.0286,0.0266,0.0239,0.0239,0.025,0.0323,0.0346,0.0386,0.0294,0.0295,0.0296,0,0.0696,0.0669,0.0665,0.0613,0.0605,0.06,0.0566,0.055,0.0511,0.0487,0.0463,0.0423,0.0411,0.0377,0.0358,0.0346,0.0332,0.0311,0.0311,0.0306,0.027,0.0319,0.0398,0.0403,0.0303,0.0302,0.0301,0,0.0771,0.0733,0.0725,0.0709,0.0648,0.0645,0.062,0.0579,0.0563,0.0533,0.0522,0.0491,0.0474,0.0451,0.0403,0.0383,0.0389,0.0352,0.0368,0.0369,0.0371,0.0372,0.0448,0.0364,0.0364,0.0364,0.0364,0,0.0829,0.0828,0.0758,0.0753,0.075,0.0696,0.0695,0.0664,0.0628,0.0615,0.0565,0.0554,0.0491,0.0473,0.0435,0.0425,0.0418,0.0397,0.0387,0.0401,0.0404,0.0391,0.0386,0.0365,0.0365,0.0365,0.0365,0,0.0912,0.0865,0.0852,0.0796,0.0781,0.0782,0.0732,0.0725,0.0689,0.0674,0.0667,0.061,0.0586,0.0536,0.0498,0.0472,0.047,0.0452,0.0483,0.0477,0.0495,0.0494,0.0566,0.0572,0.0485,0.0486,0.0487,0,0.0951,0.0949,0.0892,0.0881,0.0857,0.0839,0.0821,0.0768,0.0752,0.0706,0.0704,0.0675,0.065,0.0613,0.0568,0.0538,0.0518,0.0546,0.0514,0.0527,0.0517,0.0518,0.0516,0.0553,0.0554,0.0555,0.0556,0,0.1026,0.1002,0.098,0.0949,0.093,0.0903,0.0873,0.0866,0.0805,0.0789,0.0764,0.0744,0.0704,0.0676,0.0639,0.0611,0.0573,0.0566,0.0568,0.0582,0.06,0.0589,0.0502,0.0565,0.0564,0.0563,0.0563,0.0562,0.1087,0.1082,0.1041,0.1017,0.0989,0.0963,0.0952,0.0915,0.0893,0.0857,0.0826,0.0803,0.0762,0.0709,0.0683,0.0664,0.0645,0.0648,0.0649,0.065,0.0656,0.0604,0.0657,0.0656,0.0656,0.0656,0.0656,0,0.1158,0.1129,0.1107,0.1067,0.1048,0.1014,0.0979,0.0965,0.0946,0.0911,0.0887,0.0857,0.0829,0.0781,0.0749,0.0742,0.0723,0.0735,0.0735,0.0729,0.0675,0.0676,0.0751,0.0751,0.0751,0.0751,0.0751,0.0751,0.1192,0.1182,0.1154,0.1129,0.1099,0.1076,0.1059,0.1033,0.1005,0.0974,0.0951,0.092,0.088,0.0844,0.0816,0.0803,0.0793,0.081,0.0791,0.0742,0.0733,0.0724,0.0725,0.0809,0.0809,0.0846,0.0847,0.0847]},{"header":{"parameterUnit":"m.s-1","parameterCategory":1,"la1":30.2991,"la2":30.254,"lo1":-89.0895,"lo2":-89.0444,"dy":0.0017,"dx":0.0017,"nx":28,"ny":28,"refTime":"2025-06-18T03:00:00:Z","depth":0,"parameterNumber":3,"parameterNumberName":"V-component_of_WINDS"},"data":[0,0,0,0,0,0,0,0,0,0,0,0,0,0,0,0,0,0,0,0,0,0,0,0,0,0,0,0,0,0,0,0,0,0,0,0,0,0,0,0,0,0,0,0,0,0,0,0,0,0,0,0,0,0,0,0,0,0,3.571,3.5711,0,3.5752,3.5753,3.5753,3.5719,3.5717,3.5716,3.5715,3.5753,3.5755,3.5757,0,0,0,0,0,0,0,0,0,0,0,0,0,3.5596,3.5599,3.571,3.5711,3.5711,3.5752,3.5753,3.5753,3.5719,3.5717,3.5716,3.5714,3.5752,3.5755,3.5758,0,0,0,0,0,0,0,0,0,0,0,0,0,3.5643,3.5599,3.571,3.5699,3.5699,3.5752,3.5753,3.5753,3.572,3.5717,3.5715,3.5713,3.5751,3.5755,3.5758,3.5823,0,0,3.5769,3.577,0,0,0,0,0,0,0,0,3.564,3.5647,3.57,3.57,3.57,3.5728,3.5726,3.5776,3.572,3.5712,3.5715,3.5712,3.5746,3.575,3.5762,3.5824,3.5826,3.5769,3.5771,3.5773,3.5774,0,0,0,0,0,0,0,3.5637,3.5645,3.5727,3.5701,3.5701,3.5691,3.5695,3.5736,3.574,3.5712,3.571,3.5715,3.5745,3.5759,3.5763,3.5827,3.5769,3.5772,3.5774,3.5776,3.5943,3.5946,0,0,0,0,0,0,3.5635,3.5642,3.5725,3.5728,3.5664,3.5695,3.5699,3.5721,3.574,3.574,3.5717,3.5714,3.5754,3.5759,3.5764,3.5841,3.5773,3.5776,3.5778,3.5941,3.5944,3.5947,0,0,0,0,0,0,3.5633,3.5643,3.5724,3.5685,3.5694,3.5699,3.5724,3.5723,3.5737,3.5744,3.5744,3.5731,3.5753,3.5759,3.5809,3.5842,3.5778,3.5781,3.5938,3.5942,3.5945,3.5995,0,0,0,0,0,0,3.563,3.5643,3.5668,3.5685,3.5696,3.5769,3.5726,3.5725,3.5743,3.5739,3.5756,3.5757,3.5751,3.5804,3.5812,3.5845,3.5784,3.5935,3.594,3.5944,3.599,3.6,3.6008,0,0,0,0,0,3.5626,3.5679,3.567,3.568,3.5729,3.5771,3.5777,3.5771,3.5746,3.5771,3.5776,3.5756,3.5837,3.5809,3.5818,3.5853,3.5933,3.5939,3.5944,3.5986,3.5998,3.6007,0,0,0,0,0,0,3.5664,3.5681,3.5671,3.5731,3.575,3.5765,3.5796,3.5783,3.5808,3.5803,3.5793,3.5797,3.5849,3.5856,3.5824,3.5916,3.5881,3.5888,3.591,3.5921,3.5929,3.5926,3.5786,0,0,0,0,0,3.5679,3.5714,3.5727,3.5779,3.5789,3.5791,3.5809,3.5803,3.5822,3.5829,3.5837,3.5854,3.5883,3.5902,3.593,3.5991,3.5994,3.602,3.6028,3.6036,3.6042,3.6075,3.6086,3.5964,3.5964,3.5964,0,0,3.5711,3.5725,3.5747,3.5787,3.5801,3.5835,3.5798,3.5836,3.5861,3.5834,3.5882,3.5888,3.5907,3.5963,3.5988,3.597,3.6076,3.6042,3.6048,3.605,3.6081,3.6093,3.6103,3.5967,3.5967,3.5966,0,0,3.5787,3.5802,3.5847,3.5862,3.5884,3.5885,3.5896,3.5914,3.5918,3.5966,3.5946,3.5975,3.6026,3.604,3.6054,3.6136,3.6119,3.6145,3.619,3.6222,3.6232,3.624,3.627,3.628,3.6151,3.6152,3.6152,0,3.5824,3.5877,3.5871,3.5911,3.5929,3.5908,3.5953,3.5967,3.5997,3.6009,3.5989,3.6052,3.6063,3.6122,3.6143,3.6155,3.6166,3.6143,3.6231,3.624,3.6248,3.6275,3.6286,3.6155,3.6154,3.6154,3.6154,0,3.592,3.5957,3.5991,3.6021,3.6043,3.6085,3.6085,3.6107,3.6099,3.6103,3.6151,3.6164,3.6194,3.6207,3.6199,3.6265,3.6254,3.6233,3.6197,3.6262,3.6288,3.6299,3.6159,3.6158,3.6157,3.6156,0,0,3.602,3.6049,3.6061,3.6075,3.6098,3.6125,3.6166,3.6197,3.6216,3.6237,3.627,3.6314,3.6295,3.6311,3.6305,3.6333,3.6398,3.6309,3.6309,3.6325,3.6471,3.6486,3.6498,3.6387,3.6389,3.639,3.6469,0,3.6097,3.617,3.6167,3.6234,3.6268,3.6249,3.6285,3.6302,3.6306,3.6334,3.6338,3.637,3.6343,3.6352,3.6379,3.6384,3.6427,3.6378,3.6417,3.6418,3.6412,3.6512,3.6528,3.6601,3.6479,3.6481,3.6482,0,3.6196,3.6222,3.6294,3.6313,3.6327,3.6359,3.6387,3.6414,3.6434,3.6434,3.6453,3.6442,3.6482,3.6446,3.6501,3.6468,3.6484,3.6489,3.6491,3.6494,3.6454,3.6517,3.6625,3.6636,3.6498,3.6497,3.6495,0,3.6261,3.6314,3.6364,3.6376,3.64,3.6423,3.6433,3.6451,3.6469,3.6493,3.6505,3.6533,3.6548,3.657,3.6566,3.6541,3.6622,3.6586,3.6623,3.6624,3.6641,3.664,3.6752,3.6652,3.6652,3.6651,3.6651,0,3.6346,3.6391,3.6394,3.6424,3.6473,3.6469,3.6517,3.6525,3.6541,3.6571,3.6557,3.6585,3.658,3.6608,3.6606,3.6652,3.6658,3.666,3.6658,3.6661,3.6661,3.667,3.6665,3.6654,3.6654,3.6653,3.6653,0,3.6427,3.6431,3.6484,3.6502,3.6508,3.6543,3.6558,3.6587,3.659,3.663,3.6638,3.6643,3.6677,3.6676,3.6713,3.6711,3.6767,3.676,3.6761,3.676,3.6797,3.6794,3.692,3.6936,3.6825,3.6826,3.6827,0,3.6481,3.6515,3.6538,3.6559,3.6571,3.6604,3.6624,3.6621,3.6642,3.6667,3.6692,3.6724,3.675,3.6803,3.6809,3.6837,3.6831,3.6873,3.6834,3.6836,3.6831,3.6829,3.6832,3.688,3.6881,3.6882,3.6883,0,3.6576,3.6577,3.6607,3.6638,3.6662,3.6686,3.6708,3.6725,3.6724,3.6749,3.6783,3.6803,3.6842,3.6874,3.6902,3.6911,3.6897,3.6895,3.6905,3.6908,3.6907,3.6908,3.6781,3.6892,3.6891,3.6891,3.689,3.689,3.6645,3.6675,3.6696,3.673,3.6746,3.6767,3.6795,3.6803,3.6833,3.6865,3.6861,3.69,3.6918,3.6954,3.6966,3.6995,3.698,3.6995,3.6999,3.7002,3.7007,3.6903,3.7,3.7,3.7,3.7,3.6999,0,3.6739,3.6753,3.6784,3.6816,3.6843,3.6829,3.6853,3.6876,3.691,3.693,3.6956,3.6996,3.7027,3.7036,3.7066,3.7087,3.7082,3.7095,3.7093,3.7096,3.7018,3.7007,3.71,3.7099,3.7099,3.7099,3.7099,3.7099,3.6791,3.6841,3.6844,3.6902,3.6914,3.6953,3.6968,3.6987,3.7002,3.7048,3.7075,3.7081,3.7097,3.7128,3.7155,3.7157,3.7169,3.7185,3.7184,3.7111,3.7101,3.7092,3.708,3.7187,3.7188,3.7259,3.726,3.726]}]]